SL-14 DEB, 45320

Orbit data source: Space-Track

SL-14 DEB, 45320 is space debris in LEO originally from a launch on Thu, 15 Aug 1991 UTC launched from the Plesetsk Missile And Space Complex (PKMTR). Debris objects in space refer to the collection of defunct objects orbiting the Earth. Examples of debris include non-operational satellites, rocket bodies, and fragments generated from explosions, collisions, or faulty payload assembly.

Loading next visibility...
Identifier
45320, 1991-056BJ
Orbit
LEO
Country
Flag of CISCIS
Related business
Manufacturer
Unknown
Mission
Spacecraft
Bus & Motor
Unknown
Mass
Unknown
Launch date (UTC)
1991-08-15 (34 years ago)
Launch vehicle
Unknown
Launch site
Plesetsk Missile And Space Complex (PKMTR)
Object type
Payload
Rocket body
Debris
Shape & HBR
Unknown shape, 0.1 m
Radar Cross Section
Small (<0.1 m²)

Expand to show TLE details & history
Last TLE update: 1 day ago

TLE from 1 day ago
0 SL-14 DEB
1 45320U 91056BJ  25286.35011453  .00000978  00000-0  18343-2 0  9995
2 45320  82.5633 270.1975 0080994 150.1259 210.4535 13.36569436273993
Epoch: 2025-10-13T08:24Z
TLE epoch observation values (Epoch: 2025-10-13T08:24:09.895Z)
Latitude
0.00005°
Longitude
122.00212°
Altitude
1,177.423 km
Speed
7.239 km/s
True Right ascension
18h 00m 47s
True Declination
0° 00' 00"
Sunlit
Object was in daylight at epoch
Visualization orbit readout
Latitude
Unknown
Longitude
Unknown
Altitude
Unknown
Speed
Unknown
Apparent Right ascension
Unknown
Apparent Declination
Unknown
Sunlit
N/A
Visualization observer readout
Local Sidereal Time
02:54:08
Azimuth
Unknown
Elevation
Unknown
Doppler factor
Unknown
Orbital elements
Apogee altitude
1,180.027 km
Perigee altitude
1,058.578 km
Semi-major axis
7,497.439 km
Eccentricity
0.0081
Inclination
82.5633°
RAAN
270.1975°
Arg. of periapsis
150.1259°
True anomaly
209.98717°
Mean anomaly
210.4535°
Eccentric anomaly
210.21993°
Mean motion
3.34329 °/min
Orbital period
107.68 mins
BSTAR
0.0018343
Loading maneuver chart data...
Computing Atmospheric mass density...
Loading historical data...
Loading historical data...
Loading historical data...
Loading historical data...
Loading historical data...
Loading historical data...
Loading historical data...

Documentation

Showing up to 5 results
|